Year,Month,Day,Hour,Minute,Value (Times are PST for temperature in C)
2016,07,26,00,00,18.20
2016,07,26,00,01,18.20
2016,07,26,00,02,18.20
2016,07,26,00,03,18.20
2016,07,26,00,04,18.20
2016,07,26,00,05,18.20
2016,07,26,00,06,18.20
2016,07,26,00,07,18.20
2016,07,26,00,08,18.10
2016,07,26,00,09,18.10
2016,07,26,00,10,18.10
2016,07,26,00,11,18.10
2016,07,26,00,12,18.10
2016,07,26,00,13,18.10
2016,07,26,00,14,18.10
2016,07,26,00,15,18.10
2016,07,26,00,16,18.10
2016,07,26,00,17,18.10
2016,07,26,00,18,18.10
2016,07,26,00,19,18.10
2016,07,26,00,20,18.10
2016,07,26,00,21,18.10
2016,07,26,00,22,18.10
2016,07,26,00,23,18.10
2016,07,26,00,24,18.10
2016,07,26,00,25,18.10
2016,07,26,00,26,18.10
2016,07,26,00,27,18.10
2016,07,26,00,28,18.10
2016,07,26,00,29,18.10
2016,07,26,00,30,18.10
2016,07,26,00,31,18.10
2016,07,26,00,32,18.10
2016,07,26,00,33,18.10
2016,07,26,00,34,18.10
2016,07,26,00,35,18.10
2016,07,26,00,36,18.10
2016,07,26,00,37,18.10
2016,07,26,00,38,18.10
2016,07,26,00,39,18.10
2016,07,26,00,40,18.10
2016,07,26,00,41,18.10
2016,07,26,00,42,18.10
2016,07,26,00,43,18.00
2016,07,26,00,44,18.00
2016,07,26,00,45,18.00
2016,07,26,00,46,18.00
2016,07,26,00,47,18.00
2016,07,26,00,48,18.00
2016,07,26,00,49,17.90
2016,07,26,00,50,17.90
2016,07,26,00,51,17.90
2016,07,26,00,52,17.90
2016,07,26,00,53,17.80
2016,07,26,00,54,17.80
2016,07,26,00,55,17.80
2016,07,26,00,56,17.80
2016,07,26,00,57,17.70
2016,07,26,00,58,17.70
2016,07,26,00,59,17.70
2016,07,26,01,00,17.70
2016,07,26,01,01,17.70
2016,07,26,01,02,17.60
2016,07,26,01,03,17.60
2016,07,26,01,04,17.60
2016,07,26,01,05,17.60
2016,07,26,01,06,17.60
2016,07,26,01,07,17.60
2016,07,26,01,08,17.50
2016,07,26,01,09,17.50
2016,07,26,01,10,17.50
2016,07,26,01,11,17.50
2016,07,26,01,12,17.50
2016,07,26,01,13,17.40
2016,07,26,01,14,17.40
2016,07,26,01,15,17.40
2016,07,26,01,16,17.40
2016,07,26,01,17,17.40
2016,07,26,01,18,17.40
2016,07,26,01,19,17.40
2016,07,26,01,20,17.30
2016,07,26,01,21,17.30
2016,07,26,01,22,17.30
2016,07,26,01,23,17.30
2016,07,26,01,24,17.30
2016,07,26,01,25,17.20
2016,07,26,01,26,17.20
2016,07,26,01,27,17.20
2016,07,26,01,28,17.20
2016,07,26,01,29,17.20
2016,07,26,01,30,17.20
2016,07,26,01,31,17.20
2016,07,26,01,32,17.20
2016,07,26,01,33,17.20
2016,07,26,01,34,17.20
2016,07,26,01,35,17.10
2016,07,26,01,36,17.10
2016,07,26,01,37,17.10
2016,07,26,01,38,17.10
2016,07,26,01,39,17.10
2016,07,26,01,40,17.10
2016,07,26,01,41,17.10
2016,07,26,01,42,17.10
2016,07,26,01,43,17.10
2016,07,26,01,44,17.10
2016,07,26,01,45,17.10
2016,07,26,01,46,17.10
2016,07,26,01,47,17.10
2016,07,26,01,48,17.00
2016,07,26,01,49,17.00
2016,07,26,01,50,16.90
2016,07,26,01,51,16.90
2016,07,26,01,52,16.90
2016,07,26,01,53,16.90
2016,07,26,01,54,16.90
2016,07,26,01,55,16.90
2016,07,26,01,56,16.80
2016,07,26,01,57,16.80
2016,07,26,01,58,16.80
2016,07,26,01,59,16.80
2016,07,26,02,00,16.80
2016,07,26,02,01,16.80
2016,07,26,02,02,16.80
2016,07,26,02,03,16.80
2016,07,26,02,04,16.80
2016,07,26,02,05,16.80
2016,07,26,02,06,16.80
2016,07,26,02,07,16.80
2016,07,26,02,08,16.80
2016,07,26,02,09,16.80
2016,07,26,02,10,16.80
2016,07,26,02,11,16.80
2016,07,26,02,12,16.70
2016,07,26,02,13,16.70
2016,07,26,02,14,16.70
2016,07,26,02,15,16.70
2016,07,26,02,16,16.70
2016,07,26,02,17,16.70
2016,07,26,02,18,16.70
2016,07,26,02,19,16.60
2016,07,26,02,20,16.60
2016,07,26,02,21,16.60
2016,07,26,02,22,16.60
2016,07,26,02,23,16.60
2016,07,26,02,24,16.60
2016,07,26,02,25,16.60
2016,07,26,02,26,16.50
2016,07,26,02,27,16.50
2016,07,26,02,28,16.50
2016,07,26,02,29,16.50
2016,07,26,02,30,16.50
2016,07,26,02,31,16.40
2016,07,26,02,32,16.40
2016,07,26,02,33,16.40
2016,07,26,02,34,16.40
2016,07,26,02,35,16.40
2016,07,26,02,36,16.40
2016,07,26,02,37,16.40
2016,07,26,02,38,16.40
2016,07,26,02,39,16.40
2016,07,26,02,40,16.30
2016,07,26,02,41,16.30
2016,07,26,02,42,16.30
2016,07,26,02,43,16.30
2016,07,26,02,44,16.30
2016,07,26,02,45,16.30
2016,07,26,02,46,16.30
2016,07,26,02,47,16.30
2016,07,26,02,48,16.30
2016,07,26,02,49,16.30
2016,07,26,02,50,16.20
2016,07,26,02,51,16.20
2016,07,26,02,52,16.20
2016,07,26,02,53,16.20
2016,07,26,02,54,16.20
2016,07,26,02,55,16.20
2016,07,26,02,56,16.20
2016,07,26,02,57,16.20
2016,07,26,02,58,16.20
2016,07,26,02,59,16.20
2016,07,26,03,00,16.20
2016,07,26,03,01,16.20
2016,07,26,03,02,16.20
2016,07,26,03,03,16.20
2016,07,26,03,04,16.10
2016,07,26,03,05,16.10
2016,07,26,03,06,16.10
2016,07,26,03,07,16.10
2016,07,26,03,08,16.10
2016,07,26,03,09,16.10
2016,07,26,03,10,16.10
2016,07,26,03,11,16.10
2016,07,26,03,12,16.10
2016,07,26,03,13,16.00
2016,07,26,03,14,16.10
2016,07,26,03,15,16.00
2016,07,26,03,16,16.00
2016,07,26,03,17,16.00
2016,07,26,03,18,16.00
2016,07,26,03,19,16.00
2016,07,26,03,20,16.00
2016,07,26,03,21,15.90
2016,07,26,03,22,15.90
2016,07,26,03,23,15.90
2016,07,26,03,24,15.90
2016,07,26,03,25,15.90
2016,07,26,03,26,15.90
2016,07,26,03,27,15.90
2016,07,26,03,28,15.90
2016,07,26,03,29,15.90
2016,07,26,03,30,15.80
2016,07,26,03,31,15.80
2016,07,26,03,32,15.80
2016,07,26,03,33,15.80
2016,07,26,03,34,15.80
2016,07,26,03,35,15.80
2016,07,26,03,36,15.80
2016,07,26,03,37,15.80
2016,07,26,03,38,15.80
2016,07,26,03,39,15.80
2016,07,26,03,40,15.80
2016,07,26,03,41,15.80
2016,07,26,03,42,15.70
2016,07,26,03,43,15.70
2016,07,26,03,44,15.70
2016,07,26,03,45,15.70
2016,07,26,03,46,15.70
2016,07,26,03,47,15.70
2016,07,26,03,48,15.70
2016,07,26,03,49,15.70
2016,07,26,03,50,15.70
2016,07,26,03,51,15.70
2016,07,26,03,52,15.70
2016,07,26,03,53,15.70
2016,07,26,03,54,15.70
2016,07,26,03,55,15.70
2016,07,26,03,56,15.70
2016,07,26,03,57,15.70
2016,07,26,03,58,15.70
2016,07,26,03,59,15.70
2016,07,26,04,00,15.70
2016,07,26,04,01,15.60
2016,07,26,04,02,15.60
2016,07,26,04,03,15.60
2016,07,26,04,04,15.60
2016,07,26,04,05,15.60
2016,07,26,04,06,15.60
2016,07,26,04,07,15.60
2016,07,26,04,08,15.60
2016,07,26,04,09,15.60
2016,07,26,04,10,15.60
2016,07,26,04,11,15.60
2016,07,26,04,12,15.60
2016,07,26,04,13,15.60
2016,07,26,04,14,15.60
2016,07,26,04,15,15.60
2016,07,26,04,16,15.60
2016,07,26,04,17,15.60
2016,07,26,04,18,15.60
2016,07,26,04,19,15.60
2016,07,26,04,20,15.60
2016,07,26,04,21,15.60
2016,07,26,04,22,15.60
2016,07,26,04,23,15.60
2016,07,26,04,24,15.60
2016,07,26,04,25,15.60
2016,07,26,04,26,15.60
2016,07,26,04,27,15.60
2016,07,26,04,28,15.60
2016,07,26,04,29,15.60
2016,07,26,04,30,15.60
2016,07,26,04,31,15.60
2016,07,26,04,32,15.60
2016,07,26,04,33,15.60
2016,07,26,04,34,15.60
2016,07,26,04,35,15.50
2016,07,26,04,36,15.50
2016,07,26,04,37,15.50
2016,07,26,04,38,15.50
2016,07,26,04,39,15.50
2016,07,26,04,40,15.50
2016,07,26,04,41,15.50
2016,07,26,04,42,15.50
2016,07,26,04,43,15.50
2016,07,26,04,44,15.50
2016,07,26,04,45,15.50
2016,07,26,04,46,15.50
2016,07,26,04,47,15.50
2016,07,26,04,48,15.50
2016,07,26,04,49,15.50
2016,07,26,04,50,15.50
2016,07,26,04,51,15.50
2016,07,26,04,52,15.40
2016,07,26,04,53,15.40
2016,07,26,04,54,15.40
2016,07,26,04,55,15.40
2016,07,26,04,56,15.40
2016,07,26,04,57,15.40
2016,07,26,04,58,15.40
2016,07,26,04,59,15.40
2016,07,26,05,00,15.30
2016,07,26,05,01,15.30
2016,07,26,05,02,15.30
2016,07,26,05,03,15.30
2016,07,26,05,04,15.30
2016,07,26,05,05,15.30
2016,07,26,05,06,15.30
2016,07,26,05,07,15.30
2016,07,26,05,08,15.30
2016,07,26,05,09,15.30
2016,07,26,05,10,15.30
2016,07,26,05,11,15.20
2016,07,26,05,12,15.20
2016,07,26,05,13,15.20
2016,07,26,05,14,15.20
2016,07,26,05,15,15.20
2016,07,26,05,16,15.20
2016,07,26,05,17,15.20
2016,07,26,05,18,15.20
2016,07,26,05,19,15.20
2016,07,26,05,20,15.20
2016,07,26,05,21,15.20
2016,07,26,05,22,15.20
2016,07,26,05,23,15.20
2016,07,26,05,24,15.20
2016,07,26,05,25,15.20
2016,07,26,05,26,15.20
2016,07,26,05,27,15.20
2016,07,26,05,28,15.20
2016,07,26,05,29,15.20
2016,07,26,05,30,15.10
2016,07,26,05,31,15.10
2016,07,26,05,32,15.10
2016,07,26,05,33,15.10
2016,07,26,05,34,15.10
2016,07,26,05,35,15.10
2016,07,26,05,36,15.10
2016,07,26,05,37,15.10
2016,07,26,05,38,15.10
2016,07,26,05,39,15.10
2016,07,26,05,40,15.10
2016,07,26,05,41,15.10
2016,07,26,05,42,15.10
2016,07,26,05,43,15.10
2016,07,26,05,44,15.00
2016,07,26,05,45,15.10
2016,07,26,05,46,15.00
2016,07,26,05,47,15.10
2016,07,26,05,48,15.00
2016,07,26,05,49,15.10
2016,07,26,05,50,15.00
2016,07,26,05,51,15.00
2016,07,26,05,52,15.00
2016,07,26,05,53,15.00
2016,07,26,05,54,15.00
2016,07,26,05,55,15.00
2016,07,26,05,56,15.00
2016,07,26,05,57,15.00
2016,07,26,05,58,15.00
2016,07,26,05,59,15.10
2016,07,26,06,00,15.10
2016,07,26,06,01,15.10
2016,07,26,06,02,15.10
2016,07,26,06,03,15.10
2016,07,26,06,04,15.10
2016,07,26,06,05,15.10
2016,07,26,06,06,15.10
2016,07,26,06,07,15.10
2016,07,26,06,08,15.10
2016,07,26,06,09,15.10
2016,07,26,06,10,15.10
2016,07,26,06,11,15.20
2016,07,26,06,12,15.20
2016,07,26,06,13,15.20
2016,07,26,06,14,15.20
2016,07,26,06,15,15.20
2016,07,26,06,16,15.20
2016,07,26,06,17,15.20
2016,07,26,06,18,15.20
2016,07,26,06,19,15.20
2016,07,26,06,20,15.20
2016,07,26,06,21,15.30
2016,07,26,06,22,15.30
2016,07,26,06,23,15.30
2016,07,26,06,24,15.30
2016,07,26,06,25,15.30
2016,07,26,06,26,15.30
2016,07,26,06,27,15.30
2016,07,26,06,28,15.30
2016,07,26,06,29,15.30
2016,07,26,06,30,15.40
2016,07,26,06,31,15.40
2016,07,26,06,32,15.40
2016,07,26,06,33,15.40
2016,07,26,06,34,15.40
2016,07,26,06,35,15.40
2016,07,26,06,36,15.40
2016,07,26,06,37,15.40
2016,07,26,06,38,15.40
2016,07,26,06,39,15.50
2016,07,26,06,40,15.50
2016,07,26,06,41,15.50
2016,07,26,06,42,15.50
2016,07,26,06,43,15.50
2016,07,26,06,44,15.50
2016,07,26,06,45,15.50
2016,07,26,06,46,15.50
2016,07,26,06,47,15.50
2016,07,26,06,48,15.60
2016,07,26,06,49,15.60
2016,07,26,06,50,15.60
2016,07,26,06,51,15.60
2016,07,26,06,52,15.60
2016,07,26,06,53,15.60
2016,07,26,06,54,15.60
2016,07,26,06,55,15.60
2016,07,26,06,56,15.60
2016,07,26,06,57,15.60
2016,07,26,06,58,15.60
2016,07,26,06,59,15.60
2016,07,26,07,00,15.70
2016,07,26,07,01,15.70
2016,07,26,07,02,15.70
2016,07,26,07,03,15.70
2016,07,26,07,04,15.70
2016,07,26,07,05,15.70
2016,07,26,07,06,15.70
2016,07,26,07,07,15.70
2016,07,26,07,08,15.70
2016,07,26,07,09,15.70
2016,07,26,07,10,15.80
2016,07,26,07,11,15.80
2016,07,26,07,12,15.80
2016,07,26,07,13,15.80
2016,07,26,07,14,15.80
2016,07,26,07,15,15.80
2016,07,26,07,16,15.80
2016,07,26,07,17,15.80
2016,07,26,07,18,15.90
2016,07,26,07,19,15.90
2016,07,26,07,20,16.00
2016,07,26,07,21,16.00
2016,07,26,07,22,16.10
2016,07,26,07,23,16.10
2016,07,26,07,24,16.20
2016,07,26,07,25,16.20
2016,07,26,07,26,16.30
2016,07,26,07,27,16.30
2016,07,26,07,28,16.30
2016,07,26,07,29,16.30
2016,07,26,07,30,16.40
2016,07,26,07,31,16.40
2016,07,26,07,32,16.30
2016,07,26,07,33,16.30
2016,07,26,07,34,16.30
2016,07,26,07,35,16.30
2016,07,26,07,36,16.30
2016,07,26,07,37,16.30
2016,07,26,07,38,16.30
2016,07,26,07,39,16.20
2016,07,26,07,40,16.20
2016,07,26,07,41,16.30
2016,07,26,07,42,16.30
2016,07,26,07,43,16.30
2016,07,26,07,44,16.30
2016,07,26,07,45,16.30
2016,07,26,07,46,16.30
2016,07,26,07,47,16.30
2016,07,26,07,48,16.30
2016,07,26,07,49,16.30
2016,07,26,07,50,16.30
2016,07,26,07,51,16.30
2016,07,26,07,52,16.30
2016,07,26,07,53,16.30
2016,07,26,07,54,16.30
2016,07,26,07,55,16.30
2016,07,26,07,56,16.30
2016,07,26,07,57,16.30
2016,07,26,07,58,16.30
2016,07,26,07,59,16.30
2016,07,26,08,00,16.40
2016,07,26,08,01,16.40
2016,07,26,08,02,16.30
2016,07,26,08,03,16.30
2016,07,26,08,04,16.40
2016,07,26,08,05,16.40
2016,07,26,08,06,16.40
2016,07,26,08,07,16.40
2016,07,26,08,08,16.40
2016,07,26,08,09,16.40
2016,07,26,08,10,16.40
2016,07,26,08,11,16.40
2016,07,26,08,12,16.40
2016,07,26,08,13,16.40
2016,07,26,08,14,16.50
2016,07,26,08,15,16.50
2016,07,26,08,16,16.50
2016,07,26,08,17,16.50
2016,07,26,08,18,16.50
2016,07,26,08,19,16.50
2016,07,26,08,20,16.50
2016,07,26,08,21,16.50
2016,07,26,08,22,16.50
2016,07,26,08,23,16.50
2016,07,26,08,24,16.60
2016,07,26,08,25,16.60
2016,07,26,08,26,16.60
2016,07,26,08,27,16.60
2016,07,26,08,28,16.60
2016,07,26,08,29,16.70
2016,07,26,08,30,16.70
2016,07,26,08,31,16.70
2016,07,26,08,32,16.80
2016,07,26,08,33,16.80
2016,07,26,08,34,16.80
2016,07,26,08,35,16.90
2016,07,26,08,36,16.90
2016,07,26,08,37,16.90
2016,07,26,08,38,17.00
2016,07,26,08,39,17.00
2016,07,26,08,40,17.00
2016,07,26,08,41,17.10
2016,07,26,08,42,17.10
2016,07,26,08,43,17.20
2016,07,26,08,44,17.20
2016,07,26,08,45,17.30
2016,07,26,08,46,17.30
2016,07,26,08,47,17.40
2016,07,26,08,48,17.50
2016,07,26,08,49,17.50
2016,07,26,08,50,17.60
2016,07,26,08,51,17.60
2016,07,26,08,52,17.60
2016,07,26,08,53,17.60
2016,07,26,08,54,17.60
2016,07,26,08,55,17.60
2016,07,26,08,56,17.60
2016,07,26,08,57,17.60
2016,07,26,08,58,17.60
2016,07,26,08,59,17.60
2016,07,26,09,00,17.60
2016,07,26,09,01,17.60
2016,07,26,09,02,17.60
2016,07,26,09,03,17.60
2016,07,26,09,04,17.60
2016,07,26,09,05,17.60
2016,07,26,09,06,17.70
2016,07,26,09,07,17.70
2016,07,26,09,08,17.70
2016,07,26,09,09,17.70
2016,07,26,09,10,17.80
2016,07,26,09,11,17.90
2016,07,26,09,12,17.90
2016,07,26,09,13,18.00
2016,07,26,09,14,18.10
2016,07,26,09,15,18.10
2016,07,26,09,16,18.10
2016,07,26,09,17,18.10
2016,07,26,09,18,18.20
2016,07,26,09,19,18.30
2016,07,26,09,20,18.40
2016,07,26,09,21,18.40
2016,07,26,09,22,18.40
2016,07,26,09,23,18.40
2016,07,26,09,24,18.40
2016,07,26,09,25,18.40
2016,07,26,09,26,18.40
2016,07,26,09,27,18.40
2016,07,26,09,28,18.40
2016,07,26,09,29,18.40
2016,07,26,09,30,18.40
2016,07,26,09,31,18.40
2016,07,26,09,32,18.40
2016,07,26,09,33,18.40
2016,07,26,09,34,18.40
2016,07,26,09,35,18.40
2016,07,26,09,36,18.40
2016,07,26,09,37,18.40
2016,07,26,09,38,18.40
2016,07,26,09,39,18.50
2016,07,26,09,40,18.50
2016,07,26,09,41,18.60
2016,07,26,09,42,18.60
2016,07,26,09,43,18.60
2016,07,26,09,44,18.60
2016,07,26,09,45,18.60
2016,07,26,09,46,18.70
2016,07,26,09,47,18.70
2016,07,26,09,48,18.80
2016,07,26,09,49,18.90
2016,07,26,09,50,18.90
2016,07,26,09,51,19.00
2016,07,26,09,52,19.00
2016,07,26,09,53,19.10
2016,07,26,09,54,19.10
2016,07,26,09,55,19.20
2016,07,26,09,56,19.20
2016,07,26,09,57,19.20
2016,07,26,09,58,19.20
2016,07,26,09,59,19.20
2016,07,26,10,00,19.20
2016,07,26,10,01,19.20
2016,07,26,10,02,19.20
2016,07,26,10,03,19.20
2016,07,26,10,04,19.20
2016,07,26,10,05,19.20
2016,07,26,10,06,19.30
2016,07,26,10,07,19.30
2016,07,26,10,08,19.30
2016,07,26,10,09,19.30
2016,07,26,10,10,19.30
2016,07,26,10,11,19.40
2016,07,26,10,12,19.40
2016,07,26,10,13,19.40
2016,07,26,10,14,19.40
2016,07,26,10,15,19.50
2016,07,26,10,16,19.50
2016,07,26,10,17,19.60
2016,07,26,10,18,19.60
2016,07,26,10,19,19.70
2016,07,26,10,20,19.70
2016,07,26,10,21,19.80
2016,07,26,10,22,19.80
2016,07,26,10,23,19.80
2016,07,26,10,24,19.90
2016,07,26,10,25,19.90
2016,07,26,10,26,19.90
2016,07,26,10,27,20.00
2016,07,26,10,28,20.10
2016,07,26,10,29,20.20
2016,07,26,10,30,20.20
2016,07,26,10,31,20.20
2016,07,26,10,32,20.20
2016,07,26,10,33,20.20
2016,07,26,10,34,20.20
2016,07,26,10,35,20.20
2016,07,26,10,36,20.30
2016,07,26,10,37,20.30
2016,07,26,10,38,20.30
2016,07,26,10,39,20.30
2016,07,26,10,40,20.30
2016,07,26,10,41,20.30
2016,07,26,10,42,20.30
2016,07,26,10,43,20.40
2016,07,26,10,44,20.50
2016,07,26,10,45,20.50
2016,07,26,10,46,20.70
2016,07,26,10,47,20.80
2016,07,26,10,48,20.80
2016,07,26,10,49,20.90
2016,07,26,10,50,20.90
2016,07,26,10,51,20.90
2016,07,26,10,52,21.00
2016,07,26,10,53,21.10
2016,07,26,10,54,21.10
2016,07,26,10,55,21.20
2016,07,26,10,56,21.20
2016,07,26,10,57,21.20
2016,07,26,10,58,21.20
2016,07,26,10,59,21.20
2016,07,26,11,00,21.20
2016,07,26,11,01,21.20
2016,07,26,11,02,21.20
2016,07,26,11,03,21.20
2016,07,26,11,04,21.30
2016,07,26,11,05,21.30
2016,07,26,11,06,21.30
2016,07,26,11,07,21.30
2016,07,26,11,08,21.40
2016,07,26,11,09,21.40
2016,07,26,11,10,21.40
2016,07,26,11,11,21.50
2016,07,26,11,12,21.50
2016,07,26,11,13,21.60
2016,07,26,11,14,21.60
2016,07,26,11,15,21.50
2016,07,26,11,16,21.50
2016,07,26,11,17,21.50
2016,07,26,11,18,21.50
2016,07,26,11,19,21.60
2016,07,26,11,20,21.60
2016,07,26,11,21,21.60
2016,07,26,11,22,21.60
2016,07,26,11,23,21.70
2016,07,26,11,24,21.70
2016,07,26,11,25,21.70
2016,07,26,11,26,21.70
2016,07,26,11,27,21.70
2016,07,26,11,28,21.70
2016,07,26,11,29,21.70
2016,07,26,11,30,21.70
2016,07,26,11,31,21.80
2016,07,26,11,32,21.80
2016,07,26,11,33,21.80
2016,07,26,11,34,21.90
2016,07,26,11,35,21.90
2016,07,26,11,36,21.90
2016,07,26,11,37,21.90
2016,07,26,11,38,21.90
2016,07,26,11,39,21.80
2016,07,26,11,40,21.90
2016,07,26,11,41,22.00
2016,07,26,11,42,22.00
2016,07,26,11,43,22.00
2016,07,26,11,44,22.10
2016,07,26,11,45,22.10
2016,07,26,11,46,22.10
2016,07,26,11,47,22.10
2016,07,26,11,48,22.10
2016,07,26,11,49,22.10
2016,07,26,11,50,22.20
2016,07,26,11,51,22.20
2016,07,26,11,52,22.30
2016,07,26,11,53,22.30
2016,07,26,11,54,22.30
2016,07,26,11,55,22.40
2016,07,26,11,56,22.50
2016,07,26,11,57,22.70
2016,07,26,11,58,22.80
2016,07,26,11,59,22.80
2016,07,26,12,00,22.80
2016,07,26,12,01,22.90
2016,07,26,12,02,22.90
2016,07,26,12,03,23.00
2016,07,26,12,04,23.10
2016,07,26,12,05,23.20
2016,07,26,12,06,23.20
2016,07,26,12,07,23.20
2016,07,26,12,08,23.10
2016,07,26,12,09,23.10
2016,07,26,12,10,23.20
2016,07,26,12,11,23.20
2016,07,26,12,12,23.20
2016,07,26,12,13,23.20
2016,07,26,12,14,23.20
2016,07,26,12,15,23.10
2016,07,26,12,16,23.10
2016,07,26,12,17,23.20
2016,07,26,12,18,23.20
2016,07,26,12,19,23.20
2016,07,26,12,20,23.20
2016,07,26,12,21,23.20
2016,07,26,12,22,23.20
2016,07,26,12,23,23.20
2016,07,26,12,24,23.30
2016,07,26,12,25,23.30
2016,07,26,12,26,23.40
2016,07,26,12,27,23.40
2016,07,26,12,28,23.40
2016,07,26,12,29,23.50
2016,07,26,12,30,23.50
2016,07,26,12,31,23.50
2016,07,26,12,32,23.60
2016,07,26,12,33,23.70
2016,07,26,12,34,23.80
2016,07,26,12,35,23.80
2016,07,26,12,36,23.90
2016,07,26,12,37,23.90
2016,07,26,12,38,23.90
2016,07,26,12,39,23.90
2016,07,26,12,40,23.90
2016,07,26,12,41,23.90
2016,07,26,12,42,23.90
2016,07,26,12,43,24.00
2016,07,26,12,44,24.10
2016,07,26,12,45,24.10
2016,07,26,12,46,24.20
2016,07,26,12,47,24.30
2016,07,26,12,48,24.40
2016,07,26,12,49,24.50
2016,07,26,12,50,24.60
2016,07,26,12,51,24.70
2016,07,26,12,52,24.80
2016,07,26,12,53,24.90
2016,07,26,12,54,25.00
2016,07,26,12,55,25.10
2016,07,26,12,56,25.10
2016,07,26,12,57,25.20
2016,07,26,12,58,25.20
2016,07,26,12,59,25.30
2016,07,26,13,00,25.30
2016,07,26,13,01,25.30
2016,07,26,13,02,25.30
2016,07,26,13,03,25.30
2016,07,26,13,04,25.30
2016,07,26,13,05,25.30
2016,07,26,13,06,25.30
2016,07,26,13,07,25.40
2016,07,26,13,08,25.40
2016,07,26,13,09,25.60
2016,07,26,13,10,25.70
2016,07,26,13,11,25.70
2016,07,26,13,12,25.70
2016,07,26,13,13,25.70
2016,07,26,13,14,25.70
2016,07,26,13,15,25.60
2016,07,26,13,16,25.60
2016,07,26,13,17,25.60
2016,07,26,13,18,25.60
2016,07,26,13,19,25.60
2016,07,26,13,20,25.60
2016,07,26,13,21,25.60
2016,07,26,13,22,25.60
2016,07,26,13,23,25.60
2016,07,26,13,24,25.60
2016,07,26,13,25,25.60
2016,07,26,13,26,25.60
2016,07,26,13,27,25.70
2016,07,26,13,28,25.80
2016,07,26,13,29,25.80
2016,07,26,13,30,25.90
2016,07,26,13,31,25.90
2016,07,26,13,32,25.90
2016,07,26,13,33,25.90
2016,07,26,13,34,26.00
2016,07,26,13,35,26.00
2016,07,26,13,36,26.00
2016,07,26,13,37,26.00
2016,07,26,13,38,26.00
2016,07,26,13,39,26.10
2016,07,26,13,40,26.10
2016,07,26,13,41,26.00
2016,07,26,13,42,26.00
2016,07,26,13,43,26.00
2016,07,26,13,44,26.00
2016,07,26,13,45,26.00
2016,07,26,13,46,26.20
2016,07,26,13,47,26.30
2016,07,26,13,48,26.30
2016,07,26,13,49,26.30
2016,07,26,13,50,26.30
2016,07,26,13,51,26.20
2016,07,26,13,52,26.20
2016,07,26,13,53,26.20
2016,07,26,13,54,26.30
2016,07,26,13,55,26.20
2016,07,26,13,56,26.30
2016,07,26,13,57,26.30
2016,07,26,13,58,26.40
2016,07,26,13,59,26.50
2016,07,26,14,00,26.60
2016,07,26,14,01,26.70
2016,07,26,14,02,26.70
2016,07,26,14,03,26.60
2016,07,26,14,04,26.60
2016,07,26,14,05,26.60
2016,07,26,14,06,26.60
2016,07,26,14,07,26.60
2016,07,26,14,08,26.50
2016,07,26,14,09,26.50
2016,07,26,14,10,26.50
2016,07,26,14,11,26.50
2016,07,26,14,12,26.50
2016,07,26,14,13,26.60
2016,07,26,14,14,26.50
2016,07,26,14,15,26.50
2016,07,26,14,16,26.40
2016,07,26,14,17,26.40
2016,07,26,14,18,26.40
2016,07,26,14,19,26.40
2016,07,26,14,20,26.50
2016,07,26,14,21,26.50
2016,07,26,14,22,26.40
2016,07,26,14,23,26.30
2016,07,26,14,24,26.30
2016,07,26,14,25,26.30
2016,07,26,14,26,26.30
2016,07,26,14,27,26.30
2016,07,26,14,28,26.30
2016,07,26,14,29,26.40
2016,07,26,14,30,26.40
2016,07,26,14,31,26.40
2016,07,26,14,32,26.40
2016,07,26,14,33,26.50
2016,07,26,14,34,26.50
2016,07,26,14,35,26.50
2016,07,26,14,36,26.60
2016,07,26,14,37,26.70
2016,07,26,14,38,26.80
2016,07,26,14,39,26.70
2016,07,26,14,40,26.80
2016,07,26,14,41,26.80
2016,07,26,14,42,26.90
2016,07,26,14,43,26.90
2016,07,26,14,44,26.90
2016,07,26,14,45,26.90
2016,07,26,14,46,26.90
2016,07,26,14,47,26.90
2016,07,26,14,48,26.90
2016,07,26,14,49,27.00
2016,07,26,14,50,27.00
2016,07,26,14,51,27.10
2016,07,26,14,52,27.20
2016,07,26,14,53,27.20
2016,07,26,14,54,27.20
2016,07,26,14,55,27.30
2016,07,26,14,56,27.30
2016,07,26,14,57,27.30
2016,07,26,14,58,27.40
2016,07,26,14,59,27.40
2016,07,26,15,00,27.50
2016,07,26,15,01,27.60
2016,07,26,15,02,27.60
2016,07,26,15,03,27.60
2016,07,26,15,04,27.50
2016,07,26,15,05,27.50
2016,07,26,15,06,27.50
2016,07,26,15,07,27.60
2016,07,26,15,08,27.70
2016,07,26,15,09,27.70
2016,07,26,15,10,27.70
2016,07,26,15,11,27.70
2016,07,26,15,12,27.70
2016,07,26,15,13,27.60
2016,07,26,15,14,27.50
2016,07,26,15,15,27.50
2016,07,26,15,16,27.50
2016,07,26,15,17,27.50
2016,07,26,15,18,27.50
2016,07,26,15,19,27.50
2016,07,26,15,20,27.40
2016,07,26,15,21,27.40
2016,07,26,15,22,27.40
2016,07,26,15,23,27.40
2016,07,26,15,24,27.40
2016,07,26,15,25,27.50
2016,07,26,15,26,27.60
2016,07,26,15,27,27.60
2016,07,26,15,28,27.70
2016,07,26,15,29,27.70
2016,07,26,15,30,27.80
2016,07,26,15,31,27.80
2016,07,26,15,32,27.80
2016,07,26,15,33,27.80
2016,07,26,15,34,27.80
2016,07,26,15,35,27.80
2016,07,26,15,36,27.80
2016,07,26,15,37,27.70
2016,07,26,15,38,27.70
2016,07,26,15,39,27.60
2016,07,26,15,40,27.70
2016,07,26,15,41,27.70
2016,07,26,15,42,27.70
2016,07,26,15,43,27.70
2016,07,26,15,44,27.80
2016,07,26,15,45,27.80
2016,07,26,15,46,27.70
2016,07,26,15,47,27.70
2016,07,26,15,48,27.70
2016,07,26,15,49,27.80
2016,07,26,15,50,27.80
2016,07,26,15,51,27.80
2016,07,26,15,52,27.80
2016,07,26,15,53,27.80
2016,07,26,15,54,27.80
2016,07,26,15,55,27.80
2016,07,26,15,56,27.90
2016,07,26,15,57,27.90
2016,07,26,15,58,27.80
2016,07,26,15,59,27.80
2016,07,26,16,00,27.80
2016,07,26,16,01,27.80
2016,07,26,16,02,27.70
2016,07,26,16,03,27.60
2016,07,26,16,04,27.50
2016,07,26,16,05,27.50
2016,07,26,16,06,27.50
2016,07,26,16,07,27.50
2016,07,26,16,08,27.60
2016,07,26,16,09,27.60
2016,07,26,16,10,27.60
2016,07,26,16,11,27.50
2016,07,26,16,12,27.40
2016,07,26,16,13,27.40
2016,07,26,16,14,27.50
2016,07,26,16,15,27.60
2016,07,26,16,16,27.70
2016,07,26,16,17,27.70
2016,07,26,16,18,27.70
2016,07,26,16,19,27.70
2016,07,26,16,20,27.70
2016,07,26,16,21,27.70
2016,07,26,16,22,27.70
2016,07,26,16,23,27.80
2016,07,26,16,24,27.80
2016,07,26,16,25,27.70
2016,07,26,16,26,27.70
2016,07,26,16,27,27.70
2016,07,26,16,28,27.70
2016,07,26,16,29,27.60
2016,07,26,16,30,27.60
2016,07,26,16,31,27.60
2016,07,26,16,32,27.70
2016,07,26,16,33,27.70
2016,07,26,16,34,27.70
2016,07,26,16,35,27.70
2016,07,26,16,36,27.80
2016,07,26,16,37,27.90
2016,07,26,16,38,28.00
2016,07,26,16,39,28.00
2016,07,26,16,40,28.10
2016,07,26,16,41,28.10
2016,07,26,16,42,28.00
2016,07,26,16,43,28.00
2016,07,26,16,44,28.00
2016,07,26,16,45,28.00
2016,07,26,16,46,27.90
2016,07,26,16,47,27.90
2016,07,26,16,48,27.90
2016,07,26,16,49,27.90
2016,07,26,16,50,27.90
2016,07,26,16,51,28.00
2016,07,26,16,52,27.90
2016,07,26,16,53,27.80
2016,07,26,16,54,27.70
2016,07,26,16,55,27.70
2016,07,26,16,56,27.70
2016,07,26,16,57,27.80
2016,07,26,16,58,27.80
2016,07,26,16,59,27.80
2016,07,26,17,00,27.80
2016,07,26,17,01,27.80
2016,07,26,17,02,27.80
2016,07,26,17,03,27.80
2016,07,26,17,04,27.80
2016,07,26,17,05,27.70
2016,07,26,17,06,27.70
2016,07,26,17,07,27.70
2016,07,26,17,08,27.70
2016,07,26,17,09,27.70
2016,07,26,17,10,27.70
2016,07,26,17,11,27.60
2016,07,26,17,12,27.70
2016,07,26,17,13,27.70
2016,07,26,17,14,27.70
2016,07,26,17,15,27.70
2016,07,26,17,16,27.80
2016,07,26,17,17,27.80
2016,07,26,17,18,27.80
2016,07,26,17,19,27.80